Flag for Vietnam Weather past 2 weeks in Ho Chi Minh, Vietnam

Now
86 °F

Passing clouds.


Feels Like: 93 °F
Forecast: 78 / 94 °F
Wind: 8 mph from Southwest

Location: Ho Chi Minh

Current Time: May 5, 2015 at 10:23:15 PM

Latest Report: May 5, 2015 at 10:00 PM


Visibility: N/A

Pressure: 29.80 "Hg

Humidity: 66%

Dew point: 73 °F

Location of Ho Chi MinhLocation

Historic Weather in Ho Chi Minh — Graph

°F

Ho Chi Minh temperature yesterday

Maximum temperature yesterday: 99 °F (at 2:00 PM)
Minimum temperature yesterday: 82 °F (at 2:00 AM)
Average temperature yesterday: 88 °F

Past Weeks' High & Low Weather Summary

 TemperatureHumidityPressure
High100 °F (Apr 26, 2:00 PM)89% (Apr 26, 6:00 AM)29.92 "Hg (Apr 26, 6:00 AM)
Low77 °F (Apr 24, 2:30 AM)27% (Apr 26, 2:00 PM)29.65 "Hg (May 5, 3:30 PM)
Average87 °F65%29.81 "Hg
* Reported Apr 20 9:00 PM — May 5 9:00 PM, Ho Chi Minh, Weather by CustomWeather, © 2015

Note: Actual official high and low records may vary slightly from our data, if they occured in-between our weather recording intervals... More about our weather records

Advertising

Ho Chi Minh weather history for previous 24 hours

 ConditionsComfort  
Time TempWeatherWind HumidityBarometerVisibility
9:00 PM
Tue, May 5
88 °FPassing clouds.8 mph59%29.77 "HgN/A
8:30 PM88 °FPassing clouds.7 mph59%29.74 "HgN/A
8:00 PM86 °FPassing clouds.7 mph66%29.74 "HgN/A
7:30 PM88 °FPassing clouds.8 mph59%29.71 "HgN/A
7:00 PM88 °FPassing clouds.6 mph59%29.71 "HgN/A
6:30 PM88 °FPassing clouds.9 mph62%29.71 "HgN/A
6:00 PM90 °FThunderstorms. Scattered clouds.12 mph55%29.68 "HgN/A
5:30 PM91 °FThunderstorms. Scattered clouds.12 mph52%29.68 "HgN/A
5:00 PM93 °FScattered clouds.10 mph53%29.68 "HgN/A
4:30 PM93 °FScattered clouds.10 mph49%29.68 "HgN/A
4:00 PM93 °FScattered clouds.10 mph53%29.65 "HgN/A
3:30 PM95 °FScattered clouds.9 mph50%29.65 "HgN/A
3:00 PM93 °FScattered clouds.8 mph49%29.68 "HgN/A
2:30 PM95 °FScattered clouds.5 mph50%29.68 "HgN/A
2:00 PM95 °FScattered clouds.3 mph47%29.71 "HgN/A
1:30 PM95 °FPartly sunny.5 mph47%29.74 "HgN/A
1:00 PM93 °FPartly sunny.3 mph49%29.74 "HgN/A
12:30 PM93 °FPartly sunny.6 mph49%29.77 "HgN/A
12:00 PM91 °FPartly sunny.5 mph56%29.77 "HgN/A
11:30 AM90 °FPartly sunny.6 mph59%29.80 "HgN/A
11:00 AM91 °FPartly sunny.5 mph56%29.80 "HgN/A
10:30 AM90 °FPartly sunny.6 mph59%29.80 "HgN/A
10:00 AM88 °FPartly sunny.6 mph62%29.83 "HgN/A
9:30 AM88 °FPartly sunny.5 mph66%29.83 "HgN/A
9:00 AM88 °FScattered clouds.6 mph62%29.83 "HgN/A
8:30 AM88 °FScattered clouds.7 mph66%29.83 "HgN/A
8:00 AM86 °FScattered clouds.8 mph70%29.83 "HgN/A
7:30 AM84 °FScattered clouds.8 mph74%29.83 "HgN/A
7:00 AM84 °FPassing clouds.6 mph74%29.80 "HgN/A
6:30 AM82 °FSunny.8 mph79%29.80 "Hg10 mi
6:00 AM82 °FPassing clouds.8 mph79%29.80 "HgN/A
5:30 AM82 °FPassing clouds.6 mph79%29.80 "HgN/A
5:00 AM82 °FPassing clouds.6 mph79%29.80 "HgN/A
4:00 AM82 °FPassing clouds.5 mph79%29.77 "HgN/A
3:30 AM82 °FPassing clouds.8 mph79%29.77 "HgN/A
3:00 AM82 °FPassing clouds.6 mph79%29.77 "HgN/A
2:30 AM82 °FClear.8 mph79%29.77 "Hg10 mi
2:00 AM82 °FPassing clouds.9 mph79%29.77 "HgN/A
1:30 AM82 °FPassing clouds.9 mph79%29.80 "HgN/A
1:00 AM84 °FPassing clouds.8 mph70%29.80 "HgN/A
12:30 AM84 °FPassing clouds.9 mph70%29.80 "HgN/A
12:00 AM84 °FPassing clouds.8 mph70%29.83 "HgN/A
11:30 PM
Mon, May 4
84 °FPassing clouds.10 mph74%29.83 "HgN/A
11:00 PM84 °FPassing clouds.6 mph74%29.83 "HgN/A
10:30 PM86 °FPassing clouds.7 mph70%29.83 "HgN/A
10:00 PM86 °FPassing clouds.7 mph70%29.83 "HgN/A
Weather by CustomWeather, © 2015

See weather overviewHow to use our weather pages